(186397) = 2002 PG4 = 1999 VD224

Discovered at Palomar on 2002-08-04 by NEAT.

Orbit

Orbit type: Main Belt

Note: WebGL enabled browser required.

epoch2023-09-13.0
epoch JD2460200.5
perihelion date2023-06-10.05936
perihelion JD2460105.55936
argument of perihelion (°)195.67628
ascending node (°)184.39978
inclination (°)7.97528
eccentricity0.1849171
perihelion distance (AU)1.8411205
Tisserand w.r.t. Jupiter3.6
ΔV w.r.t. Earth (km/sec)8.7
semimajor axis (AU)2.2588137
mean anomaly (°)27.56356
mean daily motion (°/day)0.29032420
aphelion distance (AU)2.677
period (years)3.39
P-vector [x]0.93943824
P-vector [y]0.32746334
P-vector [z]0.10111156
Q-vector [x]-0.34255291
Q-vector [y]0.90635226
Q-vector [z]0.24735217
absolute magnitude17.18
phase slope0.15
uncertainty0
referenceMPEC 2023-W66
observations used374
oppositions15
arc length (days)11368
first opposition used1992
last opposition used2023
residual rms (arc-secs)0.73
perturbers coarse indicatorM-v
perturbers precise indicator003Ek
first observation date used1992-10-05.0
last observation date used2023-11-20.0
computer nameMPCLINUX
JD of orbit computation2456700.461394
perihelion JD uncertainty (days)5.1276E-05
argument of perihelion uncertainty (°)3.7260E-05
ascending node uncertainty (°)3.3949E-05
inclination uncertainty (°)7.1923E-06
eccentricity uncertainty 6.2888E-08
perihelion distance uncertainty (AU)1.4024E-07
Minimum Orbit Intersection Distances (in AU)
for orbit epoch: 2460200.5, reference: E2023-W66
Mercury1.49802
Venus1.11607
Earth0.84354
Mars0.42115
Jupiter2.77591
Saturn6.8166
Uranus15.8265
Neptune27.9852

Observations

386 total observations over interval: 1992 10 05.34096 – 2023 11 20.534082
These data are available for download (format description).

Date (UT) J2000 RA J2000 Dec Magn Location Ref
1992 10 05.34096 23 16 28.03 -03 34 36.7 18.9 V 691 – Steward Observatory, Kitt Peak-Spacewatch MPS 78270
1992 10 05.35025 23 16 27.78 -03 34 42.7 18.9 V 691 – Steward Observatory, Kitt Peak-Spacewatch MPS 78270
1992 10 05.35821 23 16 27.57 -03 34 47.8 19.0 V 691 – Steward Observatory, Kitt Peak-Spacewatch MPS 78270
1999 10 10.33708 03 38 24.62 +11 22 38.0 19.3   704 – Lincoln Laboratory ETS, New Mexico MPS 59661
1999 10 10.35276 03 38 24.53 +11 22 28.9 19.5   704 – Lincoln Laboratory ETS, New Mexico MPS 59661
1999 10 10.36846 03 38 24.32 +11 22 20.6 19.7   704 – Lincoln Laboratory ETS, New Mexico MPS 59661
1999 10 10.38444 03 38 24.17 +11 22 11.6 19.6   704 – Lincoln Laboratory ETS, New Mexico MPS 59661
1999 10 10.39989 03 38 24.08 +11 22 01.6 19.6   704 – Lincoln Laboratory ETS, New Mexico MPS 59661
1999 11 05.35795 03 24 29.23 +07 05 20.0 19.3   704 – Lincoln Laboratory ETS, New Mexico MPS 16658
1999 11 05.37464 03 24 28.29 +07 05 09.7 19.1   704 – Lincoln Laboratory ETS, New Mexico MPS 16658
1999 11 05.39134 03 24 27.46 +07 05 01.3 19.1   704 – Lincoln Laboratory ETS, New Mexico MPS 16658
1999 11 16.17680 03 14 57.52 +05 34 05.5 19.1 R 703 – Catalina Sky Survey MPS 16658
1999 11 16.18910 03 14 56.79 +05 34 00.8 18.5 R 703 – Catalina Sky Survey MPS 16658
1999 11 16.20141 03 14 56.10 +05 33 55.1 18.8 R 703 – Catalina Sky Survey MPS 16658
1999 11 16.21370 03 14 55.41 +05 33 49.7 19.1 R 703 – Catalina Sky Survey MPS 16658
2002 07 18.31818 20 51 22.79 -04 06 23.0 19.9   704 – Lincoln Laboratory ETS, New Mexico MPS 60124
2002 07 18.33157 20 51 22.21 -04 06 25.8 19.9   704 – Lincoln Laboratory ETS, New Mexico MPS 60124
2002 07 18.34486 20 51 21.64 -04 06 27.0 19.9   704 – Lincoln Laboratory ETS, New Mexico MPS 60124
2002 08 04.23686 20 36 39.56 -05 28 31.8 18.9   644 – Palomar Mountain/NEAT MPS 60124
2002 08 04.25710 20 36 38.39 -05 28 39.9 19.1   644 – Palomar Mountain/NEAT MPS 60124
2002 08 04.27812 20 36 37.16 -05 28 48.3 19.1   644 – Palomar Mountain/NEAT MPS 60124
2002 08 05.30989 20 35 39.56 -05 35 50.1 19.2   644 – Palomar Mountain/NEAT MPS 60124
2002 08 05.33662 20 35 37.99 -05 36 01.3 19.2   644 – Palomar Mountain/NEAT MPS 60124
2002 08 05.36423 20 35 36.37 -05 36 12.8 19.3   644 – Palomar Mountain/NEAT MPS 60124
2002 08 15.18665 20 26 53.12 -06 51 30.3 19.5   644 – Palomar Mountain/NEAT MPS 60124
2002 08 15.20649 20 26 52.11 -06 51 40.1 19.5   644 – Palomar Mountain/NEAT MPS 60124
2002 08 15.22782 20 26 50.97 -06 51 50.8 20.0   644 – Palomar Mountain/NEAT MPS 60124
2002 08 25.14189 20 19 45.23 -08 16 42.1 19.5   644 – Palomar Mountain/NEAT MPS 61291
2002 08 25.16420 20 19 44.38 -08 16 53.9 19.4   644 – Palomar Mountain/NEAT MPS 61291
2002 08 25.18504 20 19 43.60 -08 17 04.7 19.8   644 – Palomar Mountain/NEAT MPS 61291
2005 06 11.34907 16 33 03.23 -09 17 45.5 20.5 V 691 – Steward Observatory, Kitt Peak-Spacewatch MPS 136496
2005 06 11.36644 16 33 02.19 -09 17 43.1 20.3 V 691 – Steward Observatory, Kitt Peak-Spacewatch MPS 136496
2005 06 11.38380 16 33 01.07 -09 17 40.3 20.5 V 691 – Steward Observatory, Kitt Peak-Spacewatch MPS 136496
2005 07 03.16394 16 15 05.05 -08 59 10.0 21.2 V 691 – Steward Observatory, Kitt Peak-Spacewatch MPS 137427
2005 07 03.17948 16 15 04.45 -08 59 10.9 21.4 V 691 – Steward Observatory, Kitt Peak-Spacewatch MPS 137427
2005 07 03.19502 16 15 03.91 -08 59 11.2 21.1 V 691 – Steward Observatory, Kitt Peak-Spacewatch MPS 137427
2008 04 04.30294 14 14 20.07 -08 24 22.7 21.0 V 691 – Steward Observatory, Kitt Peak-Spacewatch MPS 244599
2008 04 04.32054 14 14 19.18 -08 24 14.4 21.0 V 691 – Steward Observatory, Kitt Peak-Spacewatch MPS 244599
2008 04 04.33813 14 14 18.33 -08 24 06.5 20.7 V 691 – Steward Observatory, Kitt Peak-Spacewatch MPS 244599
2008 04 13.21773 14 06 44.95 -07 14 39.4 20.5 V 691 – Steward Observatory, Kitt Peak-Spacewatch MPS 246699
2008 04 13.23533 14 06 44.02 -07 14 31.4 20.8 V 691 – Steward Observatory, Kitt Peak-Spacewatch MPS 246699
2008 04 13.25293 14 06 43.06 -07 14 23.0 20.7 V 691 – Steward Observatory, Kitt Peak-Spacewatch MPS 246699
2008 04 28.24203 13 52 48.57 -05 18 05.6 20.8 V G96 – Mt. Lemmon Survey MPS 248089
2008 04 28.24754 13 52 48.25 -05 18 02.8 20.8 V G96 – Mt. Lemmon Survey MPS 248089
2008 04 28.25308 13 52 47.92 -05 18 00.6 21.1 V G96 – Mt. Lemmon Survey MPS 248089
2008 04 28.25863 13 52 47.60 -05 17 58.1 20.7 V G96 – Mt. Lemmon Survey MPS 248089
2008 05 31.23501 13 31 16.24 -02 39 49.4 22.0 V G96 – Mt. Lemmon Survey MPS 251351
2008 05 31.24256 13 31 16.10 -02 39 49.2 21.2 V G96 – Mt. Lemmon Survey MPS 251351
2008 05 31.25018 13 31 15.96 -02 39 48.2 20.9 V G96 – Mt. Lemmon Survey MPS 251351
2008 05 31.25774 13 31 15.81 -02 39 47.3 21.0 V G96 – Mt. Lemmon Survey MPS 251351
2009 06 21.45539 23 25 27.37 +03 30 58.6 20.6 V G96 – Mt. Lemmon Survey MPS 289250
2009 06 21.45975 23 25 27.73 +03 31 00.7 20.5 V G96 – Mt. Lemmon Survey MPS 289250
2009 06 21.46409 23 25 28.09 +03 31 02.8 20.5 V G96 – Mt. Lemmon Survey MPS 289250
2009 06 21.46833 23 25 28.41 +03 31 04.6 20.5 V G96 – Mt. Lemmon Survey MPS 289250
2009 08 28.33759 00 09 30.31 +05 41 15.2 19.0 V 703 – Catalina Sky Survey MPS 294882
2009 08 28.34294 00 09 30.20 +05 41 13.3 19.0 V 703 – Catalina Sky Survey MPS 294882
2009 08 28.34830 00 09 30.09 +05 41 11.3 19.1 V 703 – Catalina Sky Survey MPS 294882
2009 08 28.35362 00 09 29.88 +05 41 08.9 19.1 V 703 – Catalina Sky Survey MPS 294882
2009 08 29.39521 00 09 12.62 +05 33 17.6   691 – Steward Observatory, Kitt Peak-Spacewatch MPS 294321
2009 08 29.41281 00 09 12.25 +05 33 09.5   691 – Steward Observatory, Kitt Peak-Spacewatch MPS 294321
2009 08 29.43043 00 09 11.94 +05 33 01.3   691 – Steward Observatory, Kitt Peak-Spacewatch MPS 294321
2009 09 14.07860 00 01 41.98 +02 57 47.8 18.4 V J75 – OAM Observatory, La Sagra MPS 295668
2009 09 14.09218 00 01 41.42 +02 57 38.4 18.4 V J75 – OAM Observatory, La Sagra MPS 295668
2009 09 14.10564 00 01 40.88 +02 57 28.5 18.5 V J75 – OAM Observatory, La Sagra MPS 295668
2009 09 14.25174 00 01 35.82 +02 55 46.4 19.0   704 – Lincoln Laboratory ETS, New Mexico MPS 295668
2009 09 14.26345 00 01 35.34 +02 55 38.3 19.1   704 – Lincoln Laboratory ETS, New Mexico MPS 295668
2009 09 14.27519 00 01 34.84 +02 55 30.1 19.0   704 – Lincoln Laboratory ETS, New Mexico MPS 295668
2009 09 14.28690 00 01 34.38 +02 55 21.3 19.0   704 – Lincoln Laboratory ETS, New Mexico MPS 295668
2009 09 14.29861 00 01 33.89 +02 55 13.7 19.3   704 – Lincoln Laboratory ETS, New Mexico MPS 295668
2009 09 17.18320 23 59 41.90 +02 20 27.8 19.1 V 691 – Steward Observatory, Kitt Peak-Spacewatch MPS 295668
2009 09 17.20089 23 59 41.13 +02 20 14.7 19.0 V 691 – Steward Observatory, Kitt Peak-Spacewatch MPS 295668
2009 09 17.21858 23 59 40.38 +02 20 01.8 18.9 V 691 – Steward Observatory, Kitt Peak-Spacewatch MPS 295668
2009 09 22.23918 23 56 15.78 +01 17 10.7 18.8   704 – Lincoln Laboratory ETS, New Mexico MPS 299200
2009 09 22.26296 23 56 14.75 +01 16 53.2 19.2   704 – Lincoln Laboratory ETS, New Mexico MPS 299200
2009 09 22.27489 23 56 14.21 +01 16 44.3 18.8   704 – Lincoln Laboratory ETS, New Mexico MPS 299200
2009 09 28.23411 23 52 12.21 +00 00 54.1 18.5 V G96 – Mt. Lemmon Survey MPS 297714
2009 09 28.24161 23 52 11.89 +00 00 48.4 18.4 V G96 – Mt. Lemmon Survey MPS 297714
2009 09 28.24904 23 52 11.56 +00 00 42.6 18.4 V G96 – Mt. Lemmon Survey MPS 297714
2009 09 28.25659 23 52 11.24 +00 00 36.9 18.4 V G96 – Mt. Lemmon Survey MPS 297714
2009 10 09.21277 23 45 49.75 -02 10 49.8 18.7 V 703 – Catalina Sky Survey MPS 298203
2009 10 09.21882 23 45 49.53 -02 10 54.2 18.5 V 703 – Catalina Sky Survey MPS 298203
2009 10 09.22491 23 45 49.32 -02 10 58.0 18.8 V 703 – Catalina Sky Survey MPS 298203
2009 10 09.23086 23 45 49.14 -02 11 02.6 18.9 V 703 – Catalina Sky Survey MPS 298203
2009 10 14.23489 23 43 44.66 -03 03 23.5 19.5   704 – Lincoln Laboratory ETS, New Mexico MPS 299200
2009 10 14.24803 23 43 44.35 -03 03 30.9 19.7   704 – Lincoln Laboratory ETS, New Mexico MPS 299200
2009 10 14.26119 23 43 44.10 -03 03 38.2 19.2   704 – Lincoln Laboratory ETS, New Mexico MPS 299200
2009 10 14.27432 23 43 43.68 -03 03 46.4 19.3   704 – Lincoln Laboratory ETS, New Mexico MPS 299200
